View from above orbital plane
|
View from above satellite
|
Ground track
|
The orbit data is extracted from the following two-line orbital elements,
1 29646U 06054D 21015.25758325 .00000020 00000-0 12558-3 0 9994
2 29646 2.9016 51.4003 7035389 131.0827 314.6300 2.58030369125110
Epoch (UTC): | 15 January 2021 06:10:55 |
Eccentricity: | 0.7035389 |
inclination: | 2.9016° |
perigee height: | 278 km |
apogee height: | 31872 km |
right ascension of ascending node: | 51.4003° |
argument of perigee: | 131.0827° |
revolutions per day: | 2.58030369 |
mean anomaly at epoch: | 314.6300° |
orbit number at epoch: | 12511 |
The dashed part of the orbit path shows where the satellite is in the earth's shadow,
|
|